Location: Lewisville
(33.0462°N, 96.9942°W)
Time: 10:18:24
(UTC-05:00)

OTV 5 (USA 277) - Visible Passes

Search period start: 23 August 2019 00:00
Search period end: 02 September 2019 00:00
Orbit: 305 x 329 km, 54.5° (Epoch: 20 August)

Date Brightness Start Highest point End Pass type
(mag) Time Alt. Az. Time Alt. Az. Time Alt. Az.
23 Aug ? 05:32:46 26° NNW 05:34:02 63° NE 05:36:37 10° SE visible
23 Aug ? 21:48:41 10° W 21:50:50 21° NW 21:52:23 14° N visible
24 Aug ? 05:49:50 18° S 05:49:50 18° S 05:50:49 10° S visible
24 Aug ? 20:28:26 10° SSW 20:31:04 52° SE 20:33:43 10° NE visible
25 Aug ? 20:43:04 10° WSW 20:45:36 36° NW 20:48:09 10° NNE visible
26 Aug ? 20:58:52 10° WNW 21:00:18 13° NW 21:01:44 10° N visible
